Dewpoint
62 64 64 64 64 64 65 64 63 64 64 63 63 62 61 59 58 56 55 56 54 56 51 51 57 59 60 61 60 61 61 60 61 61 62 63 64 63 62 61 61 61 62 62 61 61 62 62 62 62 62 63 63 63 63 64 64 64 65 67 68 69 70 70 71 71 71 71 71 71 72 73 73 74
65 65 65 64 64 64 65 63 63 64 65 63 63 63 63 62 59 58 56 56 57 56 57 54 55 61 62 60 60 61 61 60 62 62 63 63 63 62 62 61 61 62 62 61 60 61 61 61 62 61 61 62 62 63 63 63 64 64 65 66 67 68 69 69 70 71 71 71 71 71 71 72 73 73
66 66 65 66 65 65 64 65 63 65 65 64 64 63 63 63 62 59 58 56 58 59 57 57 57 57 59 57 59 60 61 61 62 61 62 63 62 63 62 62 62 61 60 60 60 60 60 60 60 60 60 61 62 62 63 63 64 64 64 65 66 67 67 68 69 70 70 71 71 71 71 71 72 72
67 67 66 65 65 65 65 65 65 65 66 66 65 64 64 63 63 63 59 58 57 59 58 59 60 59 60 60 60 62 61 62 62 62 62 63 62 63 63 62 62 61 60 60 59 59 59 59 60 60 60 60 61 62 62 62 62 63 64 64 65 66 67 67 68 68 69 70 70 71 71 71 72 72
67 67 66 66 66 67 66 65 64 64 65 66 65 64 64 62 62 62 61 58 58 59 60 60 59 60 61 60 61 61 61 62 62 63 63 64 63 63 63 62 62 61 60 59 59 59 59 59 59 59 60 60 61 61 62 62 62 62 62 63 64 65 66 66 66 67 68 69 69 70 71 71 71 71
67 67 67 66 66 67 67 65 64 64 63 63 63 63 62 61 61 63 60 59 58 58 60 60 61 59 60 59 62 61 61 61 62 62 62 62 63 63 63 62 61 61 60 59 58 58 58 58 59 59 59 60 60 60 60 60 60 60 60 61 62 63 63 64 65 66 67 68 69 69 70 70 70 71
66 66 67 66 65 66 66 66 65 64 64 64 63 63 63 63 62 63 63 62 59 58 58 59 59 60 60 59 60 61 61 62 62 61 61 62 62 62 62 62 61 61 60 59 58 58 58 58 58 58 59 58 58 58 58 58 58 58 58 59 60 61 62 63 64 65 66 67 68 69 69 69 70 70
66 66 66 65 65 66 66 66 65 65 65 65 65 65 65 65 64 64 64 62 60 59 57 59 59 60 60 59 60 60 61 59 60 60 61 61 62 62 61 62 62 61 60 59 58 58 58 57 57 57 57 57 56 56 55 56 57 57 57 57 58 59 60 61 62 64 64 65 66 68 68 69 69 68
66 66 65 64 65 66 66 65 65 65 66 66 65 64 65 64 64 64 64 64 64 61 58 58 59 60 60 60 60 60 60 59 60 60 60 61 61 62 61 60 61 60 59 59 59 58 58 58 58 57 57 57 56 56 56 56 56 56 56 57 57 58 59 60 60 62 63 63 64 65 66 67 68 68
67 66 65 65 66 66 65 64 64 65 66 66 65 65 65 64 64 64 64 65 64 63 60 60 57 59 58 59 59 60 60 58 57 58 59 60 60 60 59 57 58 58 59 60 59 59 59 59 58 58 57 57 56 56 56 55 55 55 55 54 54 56 57 58 60 61 61 62 63 64 64 66 66 67
65 65 65 66 66 66 66 65 65 65 66 65 65 65 65 65 64 64 64 64 64 63 61 60 59 58 59 59 57 58 59 59 58 56 55 55 56 58 58 56 57 58 58 59 60 58 57 57 56 54 55 55 56 56 56 55 54 54 54 53 53 54 55 56 58 60 60 61 61 62 62 63 65 66
64 65 65 63 65 66 66 66 66 66 66 66 65 65 66 65 65 64 64 64 62 62 61 60 58 58 58 57 58 57 57 56 56 56 56 55 56 56 57 58 57 56 57 58 57 57 57 57 57 57 57 57 57 56 56 57 57 56 55 54 55 56 55 55 57 58 59 59 59 60 60 61 63 65
66 66 65 64 64 66 67 66 65 65 65 65 65 66 66 66 65 64 64 63 62 61 60 59 60 58 56 56 56 55 56 55 55 56 57 57 57 57 56 57 58 56 55 56 56 56 56 55 55 56 57 57 57 56 58 57 59 58 56 56 57 57 57 56 56 57 58 59 59 59 59 60 62 64
65 65 64 65 66 65 64 64 63 62 61 61 63 64 65 64 64 64 63 62 61 60 59 58 59 57 54 54 56 55 56 57 57 56 57 56 56 56 56 56 56 57 56 55 55 55 56 55 55 54 54 55 57 56 55 55 54 55 56 57 58 58 58 57 57 57 57 58 58 58 58 59 61 62
64 64 66 66 66 66 65 65 64 63 62 61 60 60 60 60 63 61 61 62 62 60 59 58 59 58 56 56 56 56 55 55 56 56 56 56 56 55 54 53 54 57 56 55 54 55 56 55 54 55 55 55 56 55 55 56 57 56 56 57 57 58 59 59 58 58 57 57 58 58 58 58 59 60
65 64 64 64 66 66 65 65 65 65 64 62 61 60 59 59 59 59 62 62 61 61 59 58 59 60 57 58 58 56 54 56 56 57 57 56 56 55 54 54 54 56 57 56 56 53 56 56 55 55 56 56 56 56 56 56 56 56 56 56 57 57 58 59 60 60 59 58 59 59 59 59 60 60
66 66 65 65 65 66 65 63 64 65 64 63 61 60 60 59 58 58 58 58 61 62 61 60 59 58 60 60 59 57 58 58 57 57 55 56 55 56 55 54 54 55 57 56 55 53 54 55 55 54 55 55 55 54 56 57 57 57 56 57 57 57 57 58 59 60 60 59 59 59 59 59 59 59
65 65 65 66 65 64 65 65 64 63 63 62 62 62 62 61 60 61 58 57 57 59 59 61 60 61 61 60 59 58 59 58 56 55 55 56 55 55 55 57 56 57 57 56 54 53 54 55 54 53 53 54 54 56 55 56 56 56 56 57 56 56 56 57 59 60 60 59 59 58 58 58 58 58
65 66 66 65 63 63 63 63 63 63 62 61 60 60 60 60 59 60 59 60 60 61 60 60 59 60 59 59 58 58 58 58 57 56 56 56 56 55 56 56 56 56 56 56 57 54 53 54 53 53 53 53 53 54 54 55 56 56 56 56 57 57 56 57 58 59 59 59 59 58 57 57 57 57
66 65 64 63 63 63 63 62 60 61 62 60 60 60 60 60 59 58 61 59 60 60 60 59 58 56 56 54 57 57 55 55 56 55 55 55 55 55 54 53 52 52 53 54 53 52 52 54 52 52 53 53 54 55 55 55 55 55 56 56 56 56 56 56 58 59 59 59 59 58 57 56 55 55
63 63 63 63 63 63 62 61 57 57 59 60 60 60 60 59 57 57 60 59 56 56 54 53 54 53 53 53 52 51 52 55 55 55 54 53 53 53 53 52 52 52 51 51 53 52 53 54 53 53 53 54 54 54 55 56 55 56 55 56 56 55 55 56 57 58 59 59 59 58 58 56 55 55
63 63 62 62 63 62 61 55 56 55 57 59 59 58 58 57 57 57 58 57 58 55 53 52 52 52 53 53 52 52 52 52 52 56 53 53 53 54 54 53 52 52 52 53 53 55 55 54 54 54 54 54 55 56 56 57 57 56 55 55 55 55 55 56 56 58 58 59 59 58 57 56 55 60
63 64 62 62 61 60 60 52 54 54 56 58 59 59 58 58 57 58 58 57 56 57 56 57 57 59 56 59 59 58 54 53 54 56 55 55 56 54 54 53 53 52 52 54 56 55 55 54 54 55 54 53 54 56 57 57 57 58 58 59 59 56 56 55 55 56 57 58 58 58 56 55 55 62
63 63 62 60 57 54 53 52 51 52 52 56 58 59 58 58 58 58 57 57 56 56 56 56 56 57 57 57 56 55 55 55 57 57 56 54 54 54 54 54 54 52 51 53 54 56 55 55 54 55 54 53 53 55 57 58 59 58 59 59 59 58 57 56 56 55 56 56 56 57 56 55 56 64
60 60 60 59 55 51 51 50 49 48 50 53 56 57 58 58 57 54 56 57 55 56 56 56 55 55 55 55 53 52 52 51 51 52 53 53 53 53 54 54 53 53 53 55 55 57 55 55 54 55 55 55 55 56 56 57 59 60 61 60 60 61 63 61 60 62 56 55 55 55 55 54 55 62
59 61 60 60 56 51 49 47 46 46 48 50 54 57 47 49 50 55 54 55 54 53 53 53 53 53 52 51 50 50 50 49 50 50 50 51 52 54 54 55 54 53 53 56 55 56 56 55 55 55 55 56 56 56 56 58 60 61 61 60 61 61 64 64 64 65 65 62 61 57 58 54 55 57
60 60 59 58 53 47 44 43 44 45 47 49 53 47 47 48 48 52 54 54 53 53 53 53 53 53 51 51 50 50 49 49 52 52 52 52 53 55 55 56 56 56 56 57 57 58 58 56 56 56 56 57 56 56 56 56 57 61 63 61 61 61 64 65 65 65 65 64 63 56 55 53 54 56
57 59 59 55 46 43 42 44 46 47 49 54 45 46 48 49 51 53 54 53 53 53 52 52 51 51 50 50 50 50 51 51 53 52 52 52 53 54 55 56 56 55 55 56 57 58 58 57 58 58 59 58 57 56 55 55 56 60 63 63 62 61 66 66 65 65 66 66 65 62 61 59 58 58
58 52 45 45 45 45 46 46 48 49 49 48 48 48 49 52 52 53 52 52 52 51 51 50 49 49 50 50 51 53 53 54 53 54 52 52 53 54 55 55 56 56 56 57 58 58 58 58 58 59 59 61 59 58 58 57 56 60 64 64 63 66 67 68 66 66 66 66 65 63 61 61 59 59
50 50 48 47 48 48 50 55 57 56 54 49 50 49 48 50 49 49 50 52 51 50 49 48 48 48 48 49 51 52 52 53 52 52 52 50 52 52 53 54 54 55 56 57 58 59 59 59 59 59 60 60 62 61 59 60 59 61 64 63 65 67 67 66 66 67 67 66 65 64 64 63 62 60
54 56 55 54 52 51 52 53 52 53 50 52 51 48 47 48 48 50 51 51 50 50 48 47 47 47 47 49 50 50 50 51 51 52 52 50 50 52 53 53 53 53 55 56 57 58 59 59 59 59 59 60 61 62 62 62 60 61 63 65 65 64 67 67 66 66 67 66 66 65 65 65 63 62
54 54 51 51 52 51 51 50 50 50 51 49 47 46 45 45 46 45 45 45 49 50 49 48 48 49 49 48 47 47 47 47 49 51 51 50 50 51 52 52 53 53 53 54 55 56 59 59 60 60 61 61 61 61 63 64 62 62 62 64 64 67 67 67 66 67 67 67 66 65 65 64 63 63
55 55 53 52 50 50 49 49 49 47 47 47 45 45 43 43 42 44 44 44 47 48 49 47 48 46 46 46 46 46 45 48 48 51 51 51 50 51 52 52 52 53 52 52 54 55 57 58 60 60 62 61 61 61 62 61 63 62 63 64 64 67 65 68 67 67 68 67 65 65 64 65 64 63
53 52 50 49 49 49 49 48 48 46 45 45 44 43 42 42 41 40 42 42 44 46 47 47 46 46 45 45 45 45 45 46 47 48 49 50 50 50 50 51 52 53 54 53 54 55 56 57 59 60 61 59 58 58 58 58 57 59 61 64 65 65 66 65 68 68 67 66 65 64 64 64 64 64
50 50 49 48 49 49 47 47 46 46 44 43 42 41 40 41 41 39 38 41 43 45 44 45 45 44 44 44 45 45 44 45 45 46 49 49 49 49 50 50 51 53 53 53 53 55 57 57 57 57 58 61 58 56 56 57 55 54 56 61 64 67 66 66 66 67 68 68 67 65 64 64 64 65
50 49 49 48 47 47 45 45 46 42 41 42 41 41 38 35 34 36 38 43 44 44 44 42 42 43 43 43 44 43 43 45 46 45 46 48 48 49 49 51 52 53 53 53 53 55 57 57 57 56 54 56 56 58 58 56 55 54 55 56 61 64 67 68 68 68 68 68 68 67 65 64 64 64
49 49 48 47 48 46 45 44 43 42 38 38 38 38 37 31 30 35 43 46 46 44 42 42 41 41 42 41 42 42 42 43 43 44 45 45 47 48 49 50 52 52 52 52 54 55 57 56 56 55 54 53 52 53 55 58 55 53 54 54 56 62 65 65 65 66 67 67 66 67 66 65 65 64
49 49 48 46 46 46 45 42 41 41 40 39 38 37 34 32 35 42 45 45 42 40 40 39 39 40 39 40 40 38 39 41 42 43 42 43 45 46 47 48 49 51 51 53 54 55 56 56 55 55 55 53 52 52 52 55 56 55 50 54 54 56 60 63 65 65 66 67 67 68 68 68 67 66
48 48 47 46 46 46 43 42 40 39 40 38 35 34 33 32 35 39 40 40 40 39 38 39 39 39 41 40 39 38 38 39 40 41 41 41 43 44 45 46 48 50 51 52 53 54 55 55 55 55 55 54 53 53 54 55 55 58 55 48 52 56 58 58 64 67 66 68 69 69 69 71 68 62
48 47 47 46 45 44 42 41 40 39 38 36 32 31 32 33 36 38 39 41 42 41 39 37 39 39 39 37 38 37 37 39 39 39 40 40 42 44 44 45 47 49 50 51 51 52 54 55 55 55 54 57 57 59 59 57 58 60 59 57 48 51 53 56 61 66 66 69 69 68 67 67 66 66
47 46 45 44 43 42 40 39 38 37 36 35 34 35 39 41 40 39 40 40 41 40 37 37 39 40 38 38 38 36 37 37 38 37 40 41 41 43 43 45 47 48 48 49 50 51 53 54 57 55 58 59 59 60 57 54 54 55 57 59 54 50 50 51 56 59 62 67 68 67 66 66 66 66
46 45 44 43 41 40 39 39 37 34 34 30 29 34 40 43 42 39 41 44 45 44 39 36 37 37 37 37 36 37 37 37 37 37 39 39 40 42 44 43 44 46 47 48 49 51 54 56 57 58 59 58 57 54 52 53 53 54 56 57 59 55 52 51 51 52 55 59 66 65 64 65 67 65
45 44 42 42 42 40 39 38 38 33 29 28 30 37 37 38 38 39 38 40 41 38 36 36 36 36 36 36 36 39 37 36 36 37 38 39 40 41 42 42 43 44 47 49 51 53 54 55 56 56 57 57 56 55 52 53 54 54 54 55 57 58 60 55 53 53 53 52 52 53 57 62 65 62
44 43 42 42 40 41 41 38 34 33 32 29 31 35 35 36 36 38 38 37 37 37 37 36 37 36 37 37 37 37 37 36 37 39 38 39 41 41 41 42 43 44 45 48 50 52 54 54 55 55 55 54 54 54 53 53 52 53 54 55 56 56 57 59 60 57 56 54 53 52 52 51 51 51
44 43 42 41 40 40 39 37 36 32 29 27 29 32 35 35 36 36 37 38 37 37 37 36 36 37 36 35 36 36 37 38 37 38 38 37 37 39 40 41 43 44 44 46 49 50 51 53 53 54 53 54 54 54 55 54 53 53 54 54 54 55 56 56 56 56 56 57 54 52 52 52 52 52